Weather observations for the past three days for
Northway, Northway Airport
Imperial (Metric)
Date Time (akdt) Wind (mph) Vis. (mi.) Weather Sky Cond. Temperature (ºF) Relative Humidity Wind Chill (°F) Heat Index (°F) Pressure Precipitation (in)
Air Dwpt 6 hour altimeter (in) sea level (mb) 1 hr 3 hr 6 hr
Max. Min.
15 13:53 Calm 10.00 Overcast BKN080 OVC100 68 42.1 39% 29.72 1006.1
15 12:53 Calm 10.00 Mostly Cloudy BKN080 BKN120 70 42.1 37% 29.72 1006.1
15 11:53 Calm 10.00 Mostly Cloudy BKN080 BKN120 66 41 40% 29.74 1006.7
15 10:53 Vrbl 3 10.00 Partly Cloudy SCT080 SCT120 68 42.1 39% 29.75 1006.9
15 09:53 Calm 10.00 Partly Cloudy SCT080 SCT120 66 42.1 66.9 44.1 42% 29.75 1006.6
15 08:53 Vrbl 3 10.00 A Few Clouds FEW080 64 42.1 45% 29.75 1006.6
15 07:53 Calm 10.00 Fair CLR 61 43 52% 29.75 1006.5
15 06:53 Calm 10.00 Fair CLR 55.9 45 67% 29.74 1006.4
15 05:53 Calm 10.00 A Few Clouds FEW060 48.9 44.1 83% 29.73 1006.3
15 04:53 SW 3 10.00 A Few Clouds FEW060 46 42.1 86% 29.72 1006.1
15 03:53 N 3 10.00 A Few Clouds FEW060 46.9 43 66 45 86% 29.68 1004.8
15 02:53 Calm 10.00 A Few Clouds FEW060 50 42.1 74% 29.67 1004.3
15 01:53 NW 3 10.00 Partly Cloudy FEW060 SCT090 51.1 43 74% 29.65 1003.5
15 00:53 Calm 10.00 Partly Cloudy FEW060 SCT090 55 44.1 67% 29.63 1002.8
14 23:53 Calm 10.00 Partly Cloudy FEW060 SCT090 55 48 77% 29.6 1002.0
14 22:53 NW 5 10.00 A Few Clouds FEW070 FEW090 57 48.9 74% 29.58 1001.4
14 21:53 NW 7 10.00 Partly Cloudy SCT240 66 48 78.1 66 52% 29.55 1000.1
14 20:53 Vrbl 6 10.00 Fair CLR 68 48.9 51% 29.52 999.1
14 19:53 NW 8 G 18 10.00 Fair CLR 72 51.1 48% 29.51 998.4
14 18:53 Vrbl 6 10.00 Partly Cloudy SCT110 75 51.1 43% 78 29.5 997.9
14 17:53 Vrbl 5 10.00 Fair CLR 75 52 45% 78 29.49 997.5
14 16:53 SW 3 10.00 Mostly Cloudy BKN085 73.9 50 43% 29.5 997.8
14 15:53 W 3 10.00 Mostly Cloudy BKN090 73.9 51.1 75 60.1 45% 29.49 997.8
14 14:53 Calm 10.00 Mostly Cloudy BKN090 BKN120 72 52 50% 29.49 997.7
14 13:53 E 5 10.00 Mostly Cloudy BKN085 72 52 50% 29.5 997.9
14 12:53 Calm 10.00 Partly Cloudy SCT085 69.1 51.1 53% 29.49 998.0
14 11:53 Vrbl 3 10.00 Partly Cloudy SCT090 SCT120 66 53.1 63% 29.49 997.9
14 10:53 Calm 10.00 Overcast BKN090 OVC100 61 54 78% 29.49 998.0
14 09:53 Calm 10.00 Light Rain OVC095 60.1 53.1 61 57.9 78% 29.48 997.6
14 08:53 Calm 10.00 Light Rain OVC090 60.1 51.1 72% 29.48 997.5
14 07:53 S 3 10.00 Overcast FEW055 OVC100 59 48.9 69% 29.47 997.0
14 06:53 Calm 10.00 Partly Cloudy FEW065 SCT110 59 48 67% 29.45 996.3
14 05:53 S 3 10.00 Mostly Cloudy SCT110 BKN150 61 46 58% 29.43 995.7
14 04:53 SE 7 10.00 Mostly Cloudy SCT110 BKN150 61 45 56% 29.43 995.7
14 03:53 SE 8 10.00 Mostly Cloudy SCT100 BKN150 60.1 45 68 59 58% 29.43 995.6
14 02:53 E 12 10.00 Mostly Cloudy SCT100 BKN150 61 45 56% 29.42 995.2
14 01:53 E 8 10.00 Partly Cloudy SCT100 SCT150 61 46 58% 29.43 995.8
14 00:53 E 7 10.00 Mostly Cloudy SCT100 SCT150 BKN180 61 46 58% 29.43 995.8
13 23:53 E 7 10.00 Mostly Cloudy SCT150 BKN180 62.1 46 56% 29.44 996.0
13 22:53 E 8 10.00 Overcast OVC150 68 44.1 42% 29.45 996.4
13 21:53 E 8 10.00 Overcast OVC150 68 46 75.9 68 45% 29.46 996.8
13 20:53 E 6 10.00 Fair CLR 69.1 46 44% 29.47 997.1
13 19:53 SE 7 10.00 Fair CLR 72 43 35% 29.49 997.6
13 18:53 E 14 G 22 10.00 Fair CLR 73 42.1 33% 29.51 998.4
13 17:53 SE 12 10.00 Mostly Cloudy BKN090 BKN120 73.9 43 33% 29.53 999.6
13 16:53 SE 10 G 21 10.00 Mostly Cloudy SCT090 BKN120 75 42.1 31% 77 29.56 1000.5
13 15:53 SE 12 G 22 10.00 Mostly Cloudy SCT085 BKN120 73.9 43 75 64 33% 29.59 1001.6
13 14:53 SE 9 10.00 Mostly Cloudy SCT090 BKN120 73 43 34% 29.62 1002.6
13 13:53 Vrbl 6 10.00 Mostly Cloudy FEW085 BKN120 71.1 44.1 38% 29.65 1003.7
13 12:53 Vrbl 7 10.00 Mostly Cloudy FEW090 BKN120 69.1 43 39% 29.67 1004.4
13 11:53 S 7 10.00 Mostly Cloudy FEW100 BKN120 68 43 40% 29.69 1005.1
13 10:53 SE 7 10.00 Mostly Cloudy FEW100 BKN120 66 44.1 45% 29.71 1005.7
13 09:53 Vrbl 6 10.00 Partly Cloudy FEW100 SCT120 64 43 64.9 45 46% 29.73 1006.1
13 08:53 Calm 10.00 Partly Cloudy FEW100 SCT120 62.1 43 50% 29.74 1006.6
13 07:53 Calm 10.00 Fair CLR 61 44.1 54% 29.75 1006.9
13 06:53 Calm 10.00 Fair CLR 57 46 67% 29.77 1007.4
13 05:53 E 3 10.00 Partly Cloudy SCT240 46 43 89% 29.77 1007.8
13 04:53 SE 3 10.00 Partly Cloudy SCT240 46.9 43 86% 29.77 1008.0
13 03:53 Calm 10.00 Partly Cloudy SCT240 46 43 61 46 89% 29.77 1007.9
13 02:53 SW 3 10.00 Partly Cloudy SCT240 50 45 83% 29.76 1007.6
13 01:53 W 3 10.00 Partly Cloudy FEW070 SCT100 50 44.1 80% 29.76 1007.5
13 00:53 SW 5 10.00 Partly Cloudy FEW080 SCT095 53.1 46.9 80% 29.76 1007.4
12 23:53 Calm 10.00 Partly Cloudy FEW080 SCT095 55.9 48.9 77% 29.75 1007.1
12 22:53 Calm 10.00 A Few Clouds FEW075 57 48.9 74% 29.76 1007.2
12 21:53 Calm 10.00 Partly Cloudy SCT100 61 48 73.9 60.1 63% 29.75 1007.1
12 20:53 E 5 10.00 Fair CLR 64.9 46 51% 29.77 1007.7
12 19:53 Calm 10.00 Fair CLR 69.1 44.1 41% 29.78 1007.8
12 18:53 Calm 10.00 Partly Cloudy SCT100 71.1 46 41% 29.79 1008.4
12 17:53 SE 6 10.00 Mostly Cloudy BKN090 73 45 37% 29.81 1008.8
12 16:53 Vrbl 3 10.00 Mostly Cloudy BKN090 71.1 44.1 38% 29.82 1009.4
12 15:53 Calm 10.00 Mostly Cloudy BKN090 72 46 75 64 40% 29.84 1009.8
Date Time (akdt) Wind (mph) Vis. (mi.) Weather Sky Cond. Air Dwpt Max. Min. Relative Humidity Wind Chill (°F) Heat Index (°F) altimeter (in) sea level (mb) 1 hr 3 hr 6 hr
6 hour
Temperature (ºF) Pressure Precipitation (in)